Regional Weather Roundup
Issued by NWS

Home | Current Version | Previous Version | Graphics & Text | Print | Product List | Glossary On
Versions: 1 2 3 4 5 6 7 8 9 10 11 12 13 14 15 16 17 18 19 20 21 22 23 24 25 26 27 28 29 30 31 32 33 34 35 36 37 38 39 40 41 42 43 44 45 46 47 48 49 50
000
ASUS45 KBOU 271607
RWRCO

WEATHER ROUNDUP FOR COLORADO
NATIONAL WEATHER SERVICE DENVER/BOULDER CO
1000 AM MDT MON APR 27 2015

NOTE: "FAIR" INDICATES FEW OR NO CLOUDS BELOW 12000 FEET WITH NO
SIGNIFICANT WEATHER AND/OR OBSTRUCTIONS TO VISIBILITY.

COZ001>005-013-030-031-271700-
...NORTHWEST COLORADO...

CITY           SKY/WX    TMP DP  RH WIND       PRES   REMARKS
CRAIG          PTSUNNY   47  40  76 CALM      30.19S
HAYDEN         PTSUNNY   45  36  70 E3        30.19R
MEEKER         CLOUDY    43  38  82 SW5       30.19R
MOUNT WERNER   NOT AVBL
STEAMBOAT SPGS MOSUNNY   43  35  73 CALM      30.19S
WALDEN         MOSUNNY   41  28  60 NE3       30.22R
$$

COZ006>008-011-271700-
...WEST CENTRAL VALLEYS...

CITY           SKY/WX    TMP DP  RH WIND       PRES   REMARKS
GRAND JUNCTION MOSUNNY   56  41  57 NE8       30.12R
MONTROSE       PTSUNNY   47  39  74 CALM      30.16S
EAGLE          MOSUNNY   45  37  76 CALM      30.19S
RIFLE          SUNNY     50  37  61 CALM      30.15S
DELTA          CLOUDY    51  42  70 MISG      30.15R
NUCLA          SUNNY     50  39  66 CALM      30.15S
$$

COZ017>023-064>068-271700-
...SOUTHWEST COLORADO...

CITY           SKY/WX    TMP DP  RH WIND       PRES   REMARKS
DURANGO        SUNNY     48  34  58 SW5       30.09R
CORTEZ         SUNNY     51  37  58 E5        30.08S
PAGOSA SPRINGS SUNNY     50  28  43 E12G22    30.10R
TELLURIDE      SUNNY     39  32  76 CALM      30.18R
WOLF CREEK PAS NOT AVBL
$$

COZ009-010-012-014-032>034-037-058>063-271700-
...CENTRAL COLORADO...

CITY           SKY/WX    TMP DP  RH WIND       PRES   REMARKS
ASPEN          PTSUNNY   43  33  68 VRB6      30.17R
BUENA VISTA    CLOUDY    44  32  63 E3        30.21R
COPPER MTN     PTSUNNY   34  23  64 E10G20    30.27R WCI  26
BERTHOUD PASS  HAZE      23  14  68 MISG      30.30R VSB<1/4
COTTONWOOD PAS CLOUDY    36  32  87 E3        30.25R
GUNNISON       SUNNY     43  30  61 CALM      30.18S
KREMMLING      SUNNY     43  32  65 W3        30.21S
LEADVILLE      CLOUDY    31  26  82 S5        30.22R WCI  26
MONARCH PASS   CLOUDY    25  23  93 MISG      30.32R
SALIDA         CLOUDY    41  38  87 SE5       30.29R
SUNLIGHT       CLOUDY    34  32  93 CALM      30.28R
WILKERSON PASS SNOW     N/A N/A N/A E6        30.28S VSB 1/2
$$

COZ069>075-271700-
...SAN LUIS VALLEY/SANGRE DE CRISTO MOUNTAINS...

CITY           SKY/WX    TMP DP  RH WIND       PRES   REMARKS
ALAMOSA        MOSUNNY   47  30  51 NE17G28   30.13R
LA VETA PASS   SNOW      27  25  93 MISG      30.17R VSB 1/4
SAGUACHE       MOSUNNY   46  30  53 NE5G16    30.15R
$$

COZ035-036-038>040-271700-
...NORTHERN COLORADO FRONT RANGE...

CITY           SKY/WX    TMP DP  RH WIND       PRES   REMARKS
DENVER INTL AP CLOUDY    39  37  92 NW8       30.26R FOG
DMNS CITY PARK   N/A     40  38  90 N3        30.27R
AURORA         NOT AVBL
FRONT RANGE AP CLOUDY    41  39  93 NW6       30.26R FOG
ERIE MUNI ARPT DRIZZLE   41  40  94 N5        30.28R
BOULDER MUN AP DRIZZLE   41  39  93 N3        30.27R
CENTENNIAL     LGT RAIN  38  37  97 N8        30.26R
BROOMFIELD     LGT RAIN  41  39  93 N6        30.28R
FORT COLLINS   CLOUDY    41  36  81 NW3       30.29R
LONGMONT       DRIZZLE   44  40  86 CALM      30.30R
$$

COZ041-046-047-076>085-087-088-271700-
...PIKES PEAK/PALMER DIVIDE AND SOUTHERN FOOTHILLS...

CITY           SKY/WX    TMP DP  RH WIND       PRES   REMARKS
COLO. SPRINGS  CLOUDY    41  36  82 N14       30.24R
A. F. ACADEMY  NOT AVBL
ELLICOTT       CLOUDY   N/A N/A N/A N17       30.21R
FALCON         CLOUDY    37  36  94 N13       30.24R
FORT CARSON    NOT AVBL
LIMON          CLOUDY    39  37  92 NE12      30.24R
MONUMENT HILL  CLOUDY    34  34 100 N9        30.24R WCI  26
TRINIDAD       LGT SNOW  36  34  92 N13       30.17R FOG
$$

COZ042>045-048>051-090-091-271700-
...NORTHEAST COLORADO...

CITY           SKY/WX    TMP DP  RH WIND       PRES   REMARKS
GREELEY ARPT   CLOUDY    41  36  81 NW3       30.29R
AKRON          CLOUDY    43  40  89 E7        30.25R
BURLINGTON     MOSUNNY   48  36  63 NE22      30.21R
WRAY           PTSUNNY   52  37  55 NE12G17   30.24S
STERLING       CLOUDY    45  43  93 NE5       30.26R
HOLYOKE        PTSUNNY   54  34  47 E6        30.25R
FORT MORGAN    CLOUDY    43  40  91 E8        30.27R
$$

COZ086-089-092>099-271700-
...SOUTHEAST COLORADO...

CITY           SKY/WX    TMP DP  RH WIND       PRES   REMARKS
PUEBLO         LGT RAIN  44  40  85 N8        30.22R
LA JUNTA       CLOUDY    45  39  79 NE16      30.19R
LAMAR          CLOUDY    48  40  73 NE17      30.14R
SPRINGFIELD      N/A     41  38  89 NE23G31   30.10R
$$


USA.gov is the U.S. government's official web portal to all federal, state and local government web resources and services.